Location: Enikep?du
(16.5133°N, 80.7066°E)
Time: 16:13:54
(UTC+00:00)

ERS-1 Rocket - Pass Details

Date: 15 May 2026
Orbit: 746 x 752 km, 98.2° (Epoch: 10 June)

Event Time Altitude Azimuth Distance (km) Brightness Sun altitude
Exits shadow 14:24:47 22° 66° (ENE) 1,616 4.3 -19.3°
Drops below altitude 10° 14:28:05 10° 25° (NNE) 2,268 5.5 -20.0°
Sets 14:30:49 0° 10° (N) 3,193 6.5 -20.6°
